This is the latest recevied weather packets stored in our database for station/object K3TLB-13. If no packets are shown the sender has not sent any weather packets the latest 1 day(s).
| Time | Temp. | Humidity | Pressure | Rain* | Wind** | Luminosity | Snow |
|---|---|---|---|---|---|---|---|
| 1778096938 | 18.33° C | 79% | 1007.6 hPa | 0 mm | - | - | - |
| 1778096827 | 18.89° C | 79% | 1007.5 hPa | 0 mm | - | - | - |
| 1778096638 | 18.89° C | 79% | 1007.5 hPa | 0 mm | - | - | - |
| 1778096038 | 18.89° C | 79% | 1007.5 hPa | 0 mm | - | - | - |
| 1778095738 | 18.89° C | 80% | 1007.5 hPa | 0 mm | - | - | - |
| 1778095611 | 18.33° C | 82% | 1007.5 hPa | 0 mm | - | - | - |
| 1778095438 | 18.33° C | 82% | 1007.4 hPa | 0 mm | - | - | - |
| 1778094838 | 17.78° C | 83% | 1007.6 hPa | 0 mm | - | - | - |
| 1778094364 | 17.78° C | 84% | 1007.7 hPa | 0 mm | - | - | - |
| 1778092559 | 17.78° C | 82% | 1007.8 hPa | 0 mm | - | - | - |
| 1778091706 | 17.22° C | 83% | 1007.9 hPa | 0 mm | - | - | - |
| 1778091437 | 17.22° C | 83% | 1007.8 hPa | 0 mm | - | - | - |
| 1778091238 | 17.22° C | 83% | 1007.8 hPa | 0 mm | - | - | - |
| 1778091185 | 17.22° C | 83% | 1007.8 hPa | 0 mm | - | - | - |
| 1778090338 | 17.22° C | 83% | 1007.7 hPa | 0 mm | - | - | - |
| 1778088930 | 16.67° C | 83% | 1007.8 hPa | 0 mm | - | - | - |
| 1778088551 | 16.67° C | 83% | 1007.8 hPa | 0 mm | - | - | - |
| 1778087938 | 16.67° C | 83% | 1007.9 hPa | 0 mm | - | - | - |
| 1778087638 | 16.67° C | 83% | 1007.8 hPa | 0 mm | - | - | - |
| 1778087339 | 16.67° C | 84% | 1007.8 hPa | 0 mm | - | - | - |
| 1778084493 | 15.56° C | 85% | 1007.9 hPa | 0 mm | - | - | - |
| 1778083592 | 15.56° C | 85% | 1008.1 hPa | 0.25 mm | - | - | - |
| 1778083472 | 15.56° C | 86% | 1008 hPa | 0 mm | - | - | - |
| 1778080563 | 15.56° C | 86% | 1007.8 hPa | 2.03 mm | - | - | - |
| 1778077440 | 15° C | 87% | 1009 hPa | 3.05 mm | - | - | - |
* Rain latest hour (hover to see other rain measurements)
** Current wind speed in m/s (hover to see current wind gust speed)